Location: Newark
(34.6283°N, 36.0776°E)
Time: 19:21:10
(UTC+00:00)

S-56A Canister/Altair - Pass Details

Date: 16 October 2019
Orbit: 634 x 2498 km, 38.9° (Epoch: 10 November)

Event Time Altitude Azimuth Distance (km) Brightness Sun altitude
Rises 04:20:30 0° 282° (WNW) 4,374 10.7 6.9°
Reaches altitude 10° 04:23:03 10° 284° (WNW) 3,617 10.4 7.4°
Maximum altitude 04:32:53 75° 10° (N) 2,008 9.8 9.4°
Drops below altitude 10° 04:47:03 10° 95° (E) 5,032 13.7 12.1°
Sets 04:51:17 0° 97° (E) 6,135 13.9 13.0°
